Date String (YYYY-MM-DD hh:mm:ss) UTC,Instrument flags,absolute air pressure of the measurement (hPa),sample flow rate (lpm),inlet stack bypass flow (lpm),air temperature of the measurement (°C),ambient temperature measured by the external sensor (°C),aerosol sample conditioner tube jacket temperature (°C),OPC LED temperature (°C),internal box temperature (°C),relative humidity of the measurement (%),span deviation,mass concentration of particles derived from Lorenz-Mie calculation of OPC scattering (μg/m³),mass concentration of particles derived from Lorenz-Mie calculation of OPC scattering (μg/m³),mass concentration of particles derived from Lorenz-Mie calculation of OPC scattering (μg/m³)
DateTimeUTC,F1_M11,P_M11,Q1_M11,Q2_M11,T1_M11,T2_M11,T3_M11,T4_M11,T5_M11,U1_M11,ZSPAN_M11,X0_M11,X2_M11,X1_M11
2024-01-13 04:00:00,SystemResetWarning,0816.9,5.01,000.00,019.0,018.2,000.0,027.4,020.0,6.6,0003.7,0012.06,0005.49,0004.87
2024-01-13 04:01:00,SystemResetWarning,0816.9,5.01,000.00,018.9,018.0,000.0,027.5,020.0,6.6,0003.6,0011.83,0005.47,0004.87
2024-01-13 04:02:00,SystemResetWarning,0816.9,5.00,000.00,018.9,017.8,000.0,027.5,020.0,6.6,0003.3,0012.03,0005.47,0004.88
2024-01-13 04:03:00,SystemResetWarning,0816.9,5.00,000.00,018.9,017.8,000.0,027.5,020.1,6.7,0003.5,0011.51,0005.45,0004.88
2024-01-13 04:04:00,SystemResetWarning,0816.9,5.01,000.00,019.0,018.1,000.0,027.4,020.4,6.7,0003.6,0011.36,0005.47,0004.88
2024-01-13 04:05:00,SystemResetWarning,0816.9,5.00,000.00,019.1,018.9,000.0,027.4,020.8,6.6,0003.7,0011.46,0005.50,0004.87
2024-01-13 04:06:00,SystemResetWarning,0816.9,4.99,000.00,019.1,019.0,000.0,027.4,020.4,6.6,0003.7,0011.52,0005.51,0004.86
2024-01-13 04:07:00,SystemResetWarning,0816.9,4.98,000.00,019.0,018.7,000.0,027.4,020.0,6.6,0003.8,0011.50,0005.50,0004.84
2024-01-13 04:08:00,SystemResetWarning,0816.9,5.01,000.00,019.0,018.4,000.0,027.4,020.0,6.7,0003.9,0012.20,0005.51,0004.84
2024-01-13 04:09:00,SystemResetWarning,0816.9,5.00,000.00,019.0,018.2,000.0,027.4,020.0,6.7,0003.9,0013.02,0005.49,0004.82
2024-01-13 04:10:00,SystemResetWarning,0816.9,5.00,000.00,018.9,018.0,000.0,027.4,020.0,6.7,0003.7,0012.74,0005.44,0004.81
2024-01-13 04:11:00,SystemResetWarning,0816.9,5.00,000.00,018.9,017.9,000.0,027.4,020.1,6.7,0003.6,0012.82,0005.42,0004.79
2024-01-13 04:12:00,SystemResetWarning,0816.8,5.01,000.00,019.0,018.2,000.0,027.4,020.5,6.7,0003.7,0012.83,0005.40,0004.78
2024-01-13 04:13:00,SystemResetWarning,0816.9,5.01,000.00,019.1,018.9,000.0,027.4,020.8,6.6,0003.9,0012.83,0005.39,0004.76
2024-01-13 04:14:00,SystemResetWarning,0816.9,5.00,000.00,019.2,019.0,000.0,027.4,020.5,6.6,0003.7,0012.70,0005.43,0004.77
2024-01-13 04:15:00,SystemResetWarning,0816.9,4.98,000.00,019.1,018.7,000.0,027.4,020.1,6.6,0003.4,0013.12,0005.43,0004.76
2024-01-13 04:16:00,SystemResetWarning,0816.9,5.00,000.00,019.0,018.4,000.0,027.4,020.0,6.6,0003.1,0013.06,0005.44,0004.75
2024-01-13 04:17:00,SystemResetWarning,0816.8,5.01,000.00,019.0,018.2,000.0,027.4,020.0,6.6,0002.4,0012.88,0005.43,0004.73
2024-01-13 04:18:00,SystemResetWarning,0816.7,5.01,000.00,018.9,018.0,000.0,027.4,020.0,6.6,0001.6,0012.73,0005.46,0004.73
2024-01-13 04:19:00,SystemResetWarning,0816.7,5.00,000.00,018.9,017.9,000.0,027.5,020.0,6.6,0001.5,0011.78,0005.41,0004.72
2024-01-13 04:20:00,SystemResetWarning,0816.7,5.00,000.00,018.9,017.8,000.0,027.4,020.1,6.6,0001.4,0011.12,0005.38,0004.70
2024-01-13 04:21:00,SystemResetWarning,0816.7,5.01,000.00,019.0,018.1,000.0,027.4,020.4,6.6,0001.7,0011.66,0005.42,0004.70
2024-01-13 04:22:00,SystemResetWarning,0816.8,5.00,000.00,019.1,018.8,000.0,027.4,020.8,6.6,0001.0,0011.84,0005.45,0004.69
2024-01-13 04:23:00,SystemResetWarning,0816.9,4.99,000.00,019.1,018.9,000.0,027.4,020.4,6.5,0000.4,0011.59,0005.44,0004.67
2024-01-13 04:24:00,SystemResetWarning,0816.9,4.99,000.00,019.0,018.7,000.0,027.4,020.0,6.4,0000.7,0011.97,0005.42,0004.66
2024-01-13 04:25:00,SystemResetWarning,0816.9,5.00,000.00,019.0,018.4,000.0,027.4,020.0,6.4,0001.1,0011.91,0005.36,0004.64
2024-01-13 04:26:00,SystemResetWarning,0817.1,5.00,000.00,018.9,018.2,000.0,027.4,020.0,6.4,0001.3,0011.37,0005.32,0004.63
2024-01-13 04:27:00,SystemResetWarning,0817.1,5.00,000.00,018.9,018.0,000.0,027.4,020.0,6.5,0001.8,0011.06,0005.22,0004.62
2024-01-13 04:28:00,SystemResetWarning,0817.1,5.00,000.00,018.9,017.9,000.0,027.4,020.0,6.5,0002.4,0011.27,0005.17,0004.61
2024-01-13 04:29:00,SystemResetWarning,0817.2,5.01,000.00,018.9,017.8,000.0,027.4,020.0,6.6,0003.0,0011.17,0005.12,0004.59
2024-01-13 04:30:00,SystemResetWarning,0817.2,5.02,000.00,018.9,017.8,000.0,027.4,020.2,6.5,0002.8,0011.88,0005.14,0004.56
2024-01-13 04:31:00,SystemResetWarning,0817.3,5.00,000.00,019.0,018.4,000.0,027.4,020.6,6.4,0002.2,0011.64,0005.16,0004.56
2024-01-13 04:32:00,SystemResetWarning,0817.3,4.99,000.00,019.1,019.0,000.0,027.4,020.7,6.4,0001.2,0011.15,0005.11,0004.55
2024-01-13 04:33:00,SystemResetWarning,0817.1,4.99,000.00,019.1,018.9,000.0,027.3,020.2,6.5,0001.4,0010.91,0005.07,0004.54
2024-01-13 04:34:00,SystemResetWarning,0816.9,5.00,000.00,019.0,018.6,000.0,027.3,020.0,6.5,0000.7,0011.38,0005.10,0004.54
2024-01-13 04:35:00,SystemResetWarning,0817.0,5.01,000.00,019.0,018.4,000.0,027.4,020.0,6.5,0003.3,0012.06,0005.10,0004.52
2024-01-13 04:36:00,SystemResetWarning,0817.2,4.99,000.00,019.0,018.2,000.0,027.4,020.0,6.5,0003.5,0012.51,0005.13,0004.53
2024-01-13 04:37:00,SystemResetWarning,0817.3,5.00,000.00,018.9,018.0,000.0,027.4,020.0,6.5,0000.5,0013.37,0005.14,0004.51
2024-01-13 04:38:00,SystemResetWarning,0817.2,5.00,000.00,018.9,017.8,000.0,027.4,020.0,6.5,0000.0,0013.78,0005.17,0004.50
2024-01-13 04:39:00,SystemResetWarning,0817.1,5.01,000.00,019.0,018.1,000.0,027.4,020.4,6.5,0000.0,0013.48,0005.18,0004.50
2024-01-13 04:40:00,SystemResetWarning,0817.3,5.01,000.00,019.1,018.8,000.0,027.4,020.8,6.5,0000.0,0013.55,0005.19,0004.52
2024-01-13 04:41:00,SystemResetWarning,0817.4,4.99,000.00,019.2,019.0,000.0,027.3,020.5,6.4,0000.0,0012.72,0005.16,0004.53
2024-01-13 04:42:00,SystemResetWarning,0817.4,4.99,000.00,019.1,018.7,000.0,027.3,020.1,6.4,0000.0,0012.98,0005.12,0004.53
2024-01-13 04:43:00,SystemResetWarning,0817.4,5.00,000.00,019.0,018.5,000.0,027.4,020.0,6.4,0000.0,0013.05,0005.16,0004.54
2024-01-13 04:44:00,SystemResetWarning,0817.4,5.00,000.00,019.0,018.2,000.0,027.4,020.0,6.5,0000.0,0013.04,0005.15,0004.53
2024-01-13 04:45:00,SystemResetWarning,0817.5,5.00,000.00,018.9,018.1,000.0,027.4,020.0,6.5,0000.0,0013.14,0005.10,0004.52
2024-01-13 04:46:00,SystemResetWarning,0817.5,5.00,000.00,018.9,017.9,000.0,027.4,020.0,6.5,0000.0,0012.01,0005.09,0004.53
2024-01-13 04:47:00,SystemResetWarning,0817.5,5.00,000.00,018.9,017.8,000.0,027.4,020.1,6.5,0000.0,0011.32,0005.07,0004.53
2024-01-13 04:48:00,SystemResetWarning,0817.4,5.01,000.00,019.0,018.3,000.0,027.3,020.6,6.5,0002.1,0010.34,0005.06,0004.53
2024-01-13 04:49:00,SystemResetWarning,0817.4,5.00,000.00,019.1,019.1,000.0,027.3,021.0,6.5,0003.0,0009.99,0005.04,0004.53
2024-01-13 04:50:00,SystemResetWarning,0817.5,5.00,000.00,019.2,019.4,000.0,027.4,020.8,6.4,0002.7,0010.15,0005.08,0004.52
2024-01-13 04:51:00,SystemResetWarning,0817.6,4.99,000.00,019.2,019.1,000.0,027.4,020.2,6.4,0002.8,0009.93,0005.07,0004.50
2024-01-13 04:52:00,SystemResetWarning,0817.6,4.99,000.00,019.1,018.7,000.0,027.4,020.0,6.4,0003.1,0009.94,0005.10,0004.50
2024-01-13 04:53:00,SystemResetWarning,0817.4,5.00,000.00,019.0,018.4,000.0,027.4,020.0,6.5,0003.2,0009.85,0005.11,0004.50
2024-01-13 04:54:00,SystemResetWarning,0817.3,5.00,000.00,019.0,018.2,000.0,027.4,020.0,6.5,0003.1,0009.68,0005.05,0004.49
2024-01-13 04:55:00,SystemResetWarning,0817.2,5.00,000.00,019.0,018.0,000.0,027.4,020.0,6.5,0000.3,0009.55,0005.05,0004.50
2024-01-13 04:56:00,SystemResetWarning,0816.9,5.01,000.00,019.0,017.8,000.0,027.4,020.0,6.5,0000.9,0009.62,0005.06,0004.50
2024-01-13 04:57:00,SystemResetWarning,0817.0,5.01,000.00,019.0,018.0,000.0,027.4,020.3,6.5,0003.1,0009.87,0005.07,0004.50
2024-01-13 04:58:00,SystemResetWarning,0817.2,4.98,000.00,019.1,018.6,000.0,027.4,020.7,6.5,0003.3,0009.98,0005.06,0004.49
2024-01-13 04:59:00,SystemResetWarning,0817.2,4.99,000.00,019.2,018.9,000.0,027.4,020.6,6.4,0000.0,0009.93,0005.06,0004.51
